Regional Weather Roundup
Issued by NWS

Home | Current Version | Previous Version | Text Only | Print | Product List | Glossary On
Versions: 1 2 3 4 5 6 7 8 9 10 11 12 13 14 15 16 17 18 19 20 21 22 23 24 25 26 27
000
ASUS44 KBMX 231610
RWRAL

ALABAMA REGIONAL WEATHER ROUNDUP
NATIONAL WEATHER SERVICE BIRMINGHAM AL
1100 AM CDT SUN JUL 23 2017

NOTE: "FAIR" INDICATES FEW OR NO CLOUDS BELOW 12,000 FEET
WITH NO SIGNIFICANT WEATHER AND/OR OBSTRUCTIONS TO VISIBILITY.

THE REMARK "TC" DENOTES TEMPERATURE IN DEGREES CELSIUS.

ALZ001>011-014-016>018-020-231700-
NORTH ALABAMA

CITY           SKY/WX    TMP DP  RH WIND       PRES   REMARKS
MUSCLE SHOALS  MOSUNNY   89  73  59 NW6       29.97S HX  97
HUNTSVILLE     PTSUNNY   90  77  65 CALM      29.96S HX 103
DECATUR        MOSUNNY   88  76  67 NW8       29.96S HX  99
HALEYVILLE     NOT AVBL
GADSDEN        MOSUNNY   88  77  69 W9        29.98S HX 100
$$

ALZ012-013-022-023-030>036-040>044-231700-
WEST CENTRAL ALABAMA

CITY           SKY/WX    TMP DP  RH WIND       PRES   REMARKS
TUSCALOOSA     SUNNY     85  76  74 CALM      29.96F HX  94
DEMOPOLIS        N/A     85  72  63 CALM      29.96F HAZE    HX  91
$$

ALZ015-024>026-033>036-041>044-231700-
CENTRAL ALABAMA

CITY           SKY/WX    TMP DP  RH WIND       PRES   REMARKS
BIRMINGHAM     MOSUNNY   86  72  62 W8        30.01S HX  92
MONTGOMERY     SUNNY     88  71  57 SW7       29.98S HX  94
SHELBY CO ARPT SUNNY     85  74  69 VRB5      29.98F HX  92
MAXWELL AFB    SUNNY     86  73  65 SW5       29.97F HX  93
GREENVILLE     FAIR      87  69  54 VRB5      29.98F HX  91
SELMA          FAIR      88  72  58 S7        29.97S HX  94
PRATTVILLE     FAIR      86  74  67 CALM      29.97F HX  93
BESSEMER       FAIR      83  74  74 SW7       30.00S
TALLADEGA      FAIR      86  74  67 W5        29.99R HX  94
PELL CITY      SUNNY     86  77  74 VRB5      29.98S HX  97
MARION         FAIR      86  73  64 SW3       29.96S HX  92
SYLACAUGA      FAIR      86  76  70 SW7       29.99F HX  96
$$

ALZ019-021-028-029-037-038-045>048-231700-
EAST CENTRAL ALABAMA

CITY           SKY/WX    TMP DP  RH WIND       PRES   REMARKS
ANNISTON       MOSUNNY   85  75  72 SW9       29.98S HX  93
ALEXANDER CITY SUNNY     85  72  66 W6        29.99F HX  91
AUBURN         MOSUNNY   85  73  67 NW9       30.01S HX  91
$$

ALZ051>064-231700-
SOUTHWEST ALABAMA

CITY           SKY/WX    TMP DP  RH WIND       PRES   REMARKS
MOBILE         PTSUNNY   86  73  65 VRB3      30.00S HX  93
BROOKLEY FIELD PTSUNNY   86  76  71 W6        30.00S HX  96
EVERGREEN      MOSUNNY   86  73  65 VRB5      30.00F HX  93
$$

ALZ049-050-065>069-231700-
SOUTHEAST ALABAMA

CITY           SKY/WX    TMP DP  RH WIND       PRES   REMARKS
DOTHAN         MOSUNNY   89  74  60 N7        30.02F HX  98
OZARK          MOSUNNY   86  73  64 CALM      29.98F HX  93
TROY           MOSUNNY   86  74  67 W6        29.99F HX  94
EUFAULA        FAIR      89  74  60 VRB3      29.97F HX  98
$$




USA.gov is the U.S. government's official web portal to all federal, state and local government web resources and services.